GFSSE_sfc_wetblb_000.txt.gz
Wetbulb
68.91 72.10 71.66 71.65 71.92 72.14 71.91 71.75 71.68 71.76 72.36 72.13 71.99 72.04 71.42 71.77 70.52 69.88 69.03 68.65 68.10 68.09 68.32 68.29 68.33 68.92 70.00 69.59 69.32 69.68 70.43 70.45 70.50 70.19 71.28 70.91 71.03 71.53 71.78 71.95 71.63 71.07 72.32
70.77 72.27 71.18 71.90 72.51 72.27 72.10 71.82 71.70 71.99 72.07 70.77 70.46 71.04 70.78 71.37 70.05 69.27 68.64 68.23 68.08 67.92 67.99 68.40 68.17 68.00 69.50 69.42 69.14 69.24 69.59 70.16 70.98 71.19 71.25 70.76 71.43 71.17 71.90 71.24 70.69 71.31 71.60
70.53 72.36 72.39 71.67 72.53 72.45 72.57 72.30 72.26 72.26 71.60 71.43 71.16 70.50 70.18 70.52 70.05 69.97 68.81 67.69 67.36 67.27 67.71 68.24 69.19 68.36 69.90 69.57 68.61 68.71 69.27 69.32 69.59 70.52 71.01 69.02 69.38 71.35 71.63 71.32 70.75 71.75 71.60
70.08 72.04 72.26 71.28 72.30 72.70 72.31 72.19 71.32 71.68 71.65 71.48 71.14 70.58 70.50 70.15 70.28 69.19 67.74 67.51 67.77 67.75 68.40 68.78 68.63 69.08 68.51 67.84 66.77 67.31 67.74 68.25 68.96 69.28 69.05 68.92 68.06 70.62 71.43 71.14 70.82 70.69 70.76
69.18 70.71 71.92 71.04 71.47 72.26 72.60 72.27 72.13 71.78 71.52 71.52 71.30 70.91 70.48 69.77 68.81 67.93 67.31 67.25 67.13 67.52 67.96 68.30 68.43 68.90 68.06 67.36 66.56 66.77 67.41 67.63 68.30 68.61 69.44 69.78 69.27 68.69 69.35 70.99 70.65 70.59 70.13
67.56 69.40 70.11 70.48 71.05 71.36 71.27 71.38 71.56 71.47 71.08 70.64 70.36 70.25 69.85 69.14 67.22 66.46 66.65 66.21 66.73 67.00 67.16 66.92 66.02 65.50 65.66 66.76 66.66 66.90 66.74 67.10 67.05 68.84 69.21 69.20 67.64 68.79 67.97 68.86 69.91 70.11 70.26
66.57 68.26 68.66 69.79 70.33 70.28 70.29 69.92 69.98 70.15 70.14 69.90 69.74 69.48 69.10 68.10 67.66 66.71 66.06 65.78 65.88 65.37 65.69 65.88 66.31 66.37 66.41 66.15 65.86 65.45 65.69 67.07 68.61 68.30 68.90 69.14 69.18 67.62 67.03 67.60 68.66 69.61 69.61
66.19 68.10 68.57 69.15 69.61 69.60 69.59 69.02 68.96 69.02 68.66 68.31 68.70 68.85 68.32 67.38 66.89 66.06 65.15 64.75 64.23 63.74 63.53 63.74 63.97 64.10 64.44 64.73 65.05 65.63 65.72 65.94 67.07 69.07 67.66 68.61 67.48 67.29 67.64 67.43 67.49 68.69 68.92
66.35 67.36 68.50 68.58 68.49 67.95 67.85 67.74 68.17 68.50 67.95 67.51 67.48 67.09 67.03 66.45 65.70 65.04 64.54 63.96 63.52 63.23 63.05 62.50 62.56 62.46 62.42 62.47 62.71 63.07 63.42 63.90 67.75 67.87 67.24 67.89 65.83 66.40 66.20 66.66 66.26 66.74 68.12
67.14 67.13 67.90 68.73 68.49 68.82 68.68 66.24 66.89 67.18 67.52 66.64 66.27 65.52 65.45 65.44 64.36 63.38 62.33 63.21 62.81 62.43 62.12 61.85 61.34 60.65 60.74 61.44 61.48 61.26 61.06 62.57 67.06 67.61 68.56 66.02 64.48 66.10 66.23 65.55 65.91 65.02 66.74
66.73 67.96 68.55 68.29 68.39 68.97 68.76 67.62 65.86 65.97 66.56 66.49 66.40 65.03 65.51 68.73 67.75 65.31 62.84 62.29 62.01 61.73 61.28 60.29 59.26 58.04 57.78 59.52 60.08 59.92 60.50 65.43 65.14 66.37 66.77 62.48 63.52 64.61 65.41 65.57 65.95 66.06 66.51
66.39 67.95 68.89 69.25 68.58 68.71 67.32 68.91 68.77 68.22 69.94 70.03 69.29 68.85 68.45 68.17 68.08 65.58 64.69 62.37 61.74 60.76 59.95 59.60 59.61 59.74 60.44 62.23 63.08 61.42 63.40 63.73 63.83 64.15 64.86 62.34 63.21 64.05 64.51 64.77 64.98 65.56 65.54
67.47 68.29 68.82 69.32 69.24 68.31 67.82 69.20 68.44 68.35 68.80 69.55 69.17 69.09 68.56 68.15 67.66 67.10 66.75 65.93 65.87 62.86 64.54 63.26 64.03 63.14 62.57 62.27 61.56 62.16 61.92 61.88 61.84 62.33 61.47 59.43 59.15 60.14 61.54 62.76 64.01 64.87 64.85
66.83 68.04 69.14 69.17 69.26 69.35 68.21 67.82 68.77 67.42 67.70 67.17 67.92 68.90 68.09 67.11 66.60 66.18 65.06 64.48 64.49 64.26 64.34 63.79 63.62 63.00 60.57 59.23 59.27 59.46 59.01 58.56 59.39 61.03 58.81 56.81 56.57 56.86 57.78 58.79 60.02 61.73 63.68
66.41 68.49 69.54 70.06 69.51 68.70 68.87 68.39 68.28 67.78 66.94 67.12 67.03 67.12 67.78 66.15 65.51 64.87 63.94 63.23 62.98 63.40 63.16 62.87 62.22 60.35 57.04 56.10 57.22 57.17 56.45 57.07 58.21 58.20 58.84 54.12 54.90 55.64 57.34 58.19 59.05 59.74 60.72
67.07 68.40 70.25 69.94 69.38 67.40 67.30 67.96 67.27 67.54 66.01 66.06 65.22 65.09 66.37 66.30 64.58 63.01 61.82 61.02 61.06 61.41 62.12 62.01 60.94 58.91 57.11 56.36 56.33 57.01 56.16 56.44 56.83 57.10 57.09 56.64 53.56 55.60 57.21 57.99 59.21 59.94 60.12
66.37 67.59 69.43 69.17 67.19 66.45 65.38 66.01 65.85 65.07 63.82 63.51 63.16 63.99 64.18 64.38 63.02 62.53 61.02 60.86 61.02 61.51 62.16 62.37 61.34 59.35 57.54 56.12 55.59 56.13 56.02 56.10 55.64 55.65 55.60 56.13 54.94 54.87 55.60 56.04 57.35 57.36 57.31
66.24 66.89 68.26 66.39 64.81 64.38 64.80 65.43 65.14 64.82 64.40 63.33 63.38 63.07 63.11 63.07 63.11 62.30 60.95 60.75 61.42 61.47 60.88 60.59 60.18 58.63 57.41 55.78 55.13 55.34 55.55 55.51 55.12 55.35 55.48 55.10 55.16 55.23 54.61 55.21 55.38 55.04 55.39
65.05 66.14 66.82 65.89 61.65 62.08 63.71 64.68 64.55 64.09 63.24 62.03 61.89 61.20 61.45 61.65 61.80 61.63 60.53 60.60 61.53 60.66 60.14 59.88 59.33 58.77 57.12 55.88 54.78 55.11 55.57 55.18 55.11 54.26 54.74 54.98 55.25 54.81 55.02 53.71 54.19 53.70 53.35
63.73 65.96 66.25 63.31 62.12 63.26 64.64 63.70 61.95 61.16 61.44 60.64 59.86 59.07 59.14 59.10 59.60 59.91 59.77 60.52 61.07 60.08 59.39 58.94 58.89 58.69 57.33 56.15 53.94 53.57 54.71 55.34 55.34 54.71 54.41 54.13 54.33 55.24 55.14 55.30 55.73 54.87 52.89
63.65 64.18 63.98 62.46 59.70 60.69 60.43 57.99 58.18 57.37 58.09 58.64 58.64 58.63 58.72 58.49 58.36 58.37 58.15 58.54 59.12 58.62 58.82 59.16 58.74 57.82 57.07 57.11 54.33 53.63 54.13 55.19 55.28 54.49 54.71 54.26 53.81 54.62 55.32 55.33 54.51 54.23 53.80
60.93 61.21 59.17 57.64 57.67 57.66 58.48 57.91 57.73 57.15 57.69 57.70 57.91 57.89 57.64 56.44 56.24 56.07 56.64 56.58 56.95 56.55 57.13 57.60 57.59 56.48 56.99 57.41 53.55 52.53 49.48 51.84 53.91 54.15 54.25 53.68 54.02 54.15 54.05 54.36 52.55 51.68 51.72
57.49 57.64 57.36 57.30 57.15 56.84 56.96 57.05 57.62 57.97 57.06 55.76 55.25 55.00 54.77 54.94 54.72 55.06 55.32 55.37 55.65 55.42 54.41 55.27 55.73 55.28 53.67 55.95 57.01 52.60 49.13 47.55 51.04 53.59 53.26 53.27 53.45 53.15 53.64 52.20 50.68 49.92 50.09
57.13 57.68 56.93 56.42 56.14 55.53 55.76 55.24 54.67 53.57 52.40 53.49 53.74 54.03 53.81 54.08 53.82 53.73 53.85 54.34 54.31 54.14 53.57 53.54 53.43 53.76 53.52 51.96 54.10 54.89 55.20 53.43 48.51 46.74 51.44 52.17 52.64 52.00 52.17 50.77 50.08 50.06 50.03
56.29 56.14 56.58 56.27 55.62 55.07 54.50 54.69 54.13 53.34 53.39 53.66 53.35 52.32 52.17 52.61 52.97 52.79 52.67 52.79 53.01 52.80 52.61 52.69 52.54 52.48 52.55 51.87 51.52 51.43 50.55 51.52 51.34 47.53 46.63 47.14 50.06 50.40 49.70 49.47 49.98 49.65 50.18
56.24 56.26 55.88 54.96 54.20 54.84 54.53 53.74 53.01 52.74 52.56 51.77 51.07 50.20 50.46 50.82 51.10 51.66 51.27 51.69 51.60 50.99 50.71 50.51 50.73 49.89 49.71 49.01 48.46 47.17 46.41 41.82 43.48 44.83 44.86 46.45 47.37 47.69 48.44 48.91 48.29 48.89 49.78

GFSSE_sfc_wetblb_003.txt.gz
Wetbulb
70.85 71.54 72.37 72.42 72.81 72.26 72.06 72.07 72.21 72.43 72.41 72.64 72.22 71.90 71.47 70.45 69.91 69.54 69.18 68.83 68.79 68.60 68.87 69.12 68.96 68.39 69.24 69.92 69.68 69.29 70.23 70.62 69.60 69.30 69.92 70.38 70.30 70.82 70.78 71.20 71.82 71.21 71.83
72.22 72.44 72.15 72.83 72.48 72.60 72.23 72.12 72.17 71.65 72.07 71.53 71.68 71.41 70.86 70.69 70.44 70.04 69.34 68.69 68.61 68.59 68.73 69.21 69.95 68.75 69.32 69.67 69.46 68.99 69.33 70.08 70.94 70.58 69.99 69.80 70.38 70.26 70.74 70.61 71.23 70.84 71.26
71.74 72.24 72.59 72.52 73.05 72.45 71.62 71.31 71.80 72.47 72.44 72.12 71.28 71.06 70.84 70.57 70.27 69.69 68.67 68.46 68.54 69.05 69.38 69.29 69.81 70.09 70.59 70.19 69.15 68.76 69.03 69.58 69.66 70.20 70.60 67.30 68.72 68.51 70.59 70.48 69.84 70.23 70.53
72.01 72.24 72.97 72.38 72.85 72.17 72.30 71.94 72.10 72.05 71.97 71.47 71.20 71.16 70.96 70.48 69.71 69.10 68.42 68.30 68.29 68.71 69.32 69.57 69.52 69.73 68.77 68.39 67.23 67.35 67.73 68.29 68.63 69.23 68.11 67.74 68.85 67.99 69.51 70.31 69.59 70.40 69.65
71.05 72.48 72.61 71.85 72.38 72.88 72.90 72.31 72.04 72.03 72.14 71.99 71.50 70.71 70.97 69.93 68.48 67.87 67.58 67.55 67.66 67.91 68.13 67.89 67.38 67.92 68.50 67.77 67.02 66.95 67.22 67.83 68.09 68.47 68.24 68.01 68.02 68.52 69.98 69.77 70.39 70.42 70.74
69.42 71.51 71.20 71.50 71.81 72.32 72.42 72.06 72.24 71.96 71.35 70.90 70.82 70.63 70.20 68.76 67.86 67.51 66.96 67.11 67.25 66.71 66.98 67.09 66.99 66.65 66.23 66.39 66.41 66.46 66.77 67.74 67.96 67.40 67.60 68.57 68.30 68.91 68.66 69.06 69.54 69.76 70.15
66.84 68.43 71.13 70.67 71.14 71.30 71.10 70.86 70.92 70.73 70.58 70.20 69.98 69.70 68.94 68.45 67.82 66.84 66.20 65.87 65.12 64.75 64.48 64.80 65.17 65.59 66.39 66.71 66.89 66.73 66.26 66.86 67.15 66.83 67.09 67.25 68.73 68.04 67.17 66.87 67.22 67.95 68.79
66.17 67.94 68.21 69.71 70.57 70.28 70.08 69.70 69.42 69.28 68.91 68.85 68.91 68.47 68.02 67.22 66.53 65.73 65.20 64.90 64.46 64.08 63.63 63.15 63.11 63.42 63.59 64.09 64.47 64.91 64.85 65.33 66.01 66.85 66.97 67.47 67.33 67.19 67.64 66.95 66.48 66.04 66.85
66.35 67.59 67.99 68.41 68.98 68.77 68.37 68.45 68.72 68.55 68.16 67.80 67.36 67.14 66.84 66.41 65.52 64.82 64.58 64.04 63.55 63.13 62.69 62.17 61.72 61.60 61.94 62.56 63.03 63.11 63.44 64.41 65.64 65.87 65.70 66.23 65.78 66.55 66.37 67.33 67.08 66.42 66.19
65.64 67.28 68.41 68.66 68.50 69.09 68.54 67.19 67.60 67.89 67.64 66.98 66.41 65.97 65.89 65.82 65.12 63.91 63.87 63.35 62.77 62.37 61.95 61.25 60.76 60.29 60.32 61.40 61.58 61.48 62.26 63.51 65.59 64.84 65.00 62.52 64.63 66.00 66.32 65.86 66.36 67.55 66.86
65.59 67.68 68.52 68.42 68.22 68.10 67.44 67.10 65.99 66.47 67.01 66.72 66.59 65.87 66.20 67.92 67.41 66.01 63.63 63.10 62.38 61.90 61.10 60.16 59.29 58.70 59.36 60.49 60.98 60.89 61.66 64.07 63.67 64.28 63.96 62.68 63.23 64.49 65.02 64.91 65.58 66.08 66.91
65.76 66.94 69.26 69.18 68.74 67.70 65.54 67.09 66.65 66.23 68.01 67.98 68.08 67.93 67.66 67.56 67.16 65.80 64.66 63.92 63.50 62.58 61.89 61.05 60.80 60.99 61.15 61.95 61.93 61.50 62.25 62.06 61.87 62.91 63.71 61.27 61.63 63.19 63.83 63.96 64.45 65.14 65.71
66.23 66.52 68.69 70.04 69.17 67.52 65.97 67.14 66.92 66.99 67.14 67.77 68.11 68.24 67.65 67.13 67.21 66.37 66.11 65.97 66.37 63.91 64.41 62.96 63.34 63.31 62.68 61.26 60.25 60.60 60.80 60.93 60.28 60.37 59.67 57.96 57.59 59.53 60.13 60.89 61.82 63.14 64.18
65.11 65.49 68.58 70.02 68.75 68.15 67.56 66.52 66.82 66.23 66.09 66.23 66.72 67.16 66.83 65.58 65.80 65.47 64.29 64.00 63.60 63.01 63.33 63.41 62.72 62.86 61.76 59.05 58.27 58.41 58.66 57.97 56.62 57.78 58.18 56.33 55.95 56.77 57.10 58.01 58.87 60.04 61.20
64.10 65.72 67.75 69.76 67.73 66.80 67.29 67.99 67.86 67.19 66.58 65.92 66.52 65.99 65.72 64.90 64.71 63.89 63.10 62.06 61.71 61.73 61.82 61.82 61.50 60.85 59.47 57.79 56.93 57.35 57.08 57.11 57.46 57.30 57.49 56.01 55.29 55.93 57.05 57.77 58.56 59.19 59.54
64.00 65.62 68.07 69.05 67.88 65.92 65.99 66.98 67.42 66.49 65.83 65.41 64.89 63.96 64.54 64.55 64.32 62.63 61.94 61.16 61.04 61.22 61.28 61.18 61.09 60.58 58.93 57.79 57.03 57.17 57.18 56.54 56.90 57.70 56.69 56.14 55.28 56.43 57.35 57.80 59.14 59.62 59.37
64.92 65.56 67.75 68.82 67.06 64.90 65.30 65.34 65.09 63.31 63.22 63.68 63.52 63.71 63.25 63.41 63.34 63.01 61.84 61.32 61.30 62.23 62.47 61.92 61.29 60.91 59.77 58.63 57.31 56.73 56.85 56.89 56.42 56.47 56.33 55.92 54.96 55.85 56.89 57.18 58.09 57.20 56.93
64.64 65.33 67.17 67.56 65.34 64.19 64.65 63.79 64.14 63.75 63.84 63.27 63.37 63.57 63.01 63.04 63.07 62.86 61.40 61.32 62.21 62.44 61.19 60.94 59.88 59.36 59.12 58.63 58.27 56.74 56.53 56.67 56.48 56.19 56.09 55.90 55.57 55.29 55.44 56.62 56.37 55.90 55.91
64.42 64.98 66.12 67.29 63.27 63.08 64.13 63.72 63.72 63.55 62.60 61.83 61.70 61.41 61.79 61.43 61.61 61.50 60.85 61.78 64.16 61.95 62.32 61.96 60.85 60.99 59.31 59.04 58.32 58.32 57.41 56.54 57.29 55.66 55.55 56.76 57.17 55.72 55.90 56.59 56.38 55.98 55.23
63.81 64.19 65.68 65.91 62.46 62.73 63.90 63.58 61.75 61.53 61.14 61.24 60.59 60.40 60.68 60.75 60.97 60.90 60.50 62.16 62.23 61.16 61.37 61.67 62.26 61.08 60.75 59.80 57.57 57.41 58.88 58.03 57.65 57.59 56.32 55.81 55.86 56.88 55.85 55.65 54.27 53.58 55.06
63.55 64.10 64.19 63.42 63.04 62.26 61.28 59.48 58.58 58.08 58.94 59.55 59.93 60.20 60.42 59.95 59.10 59.08 58.50 59.48 60.22 59.11 60.54 60.94 60.31 59.64 59.22 60.25 58.80 58.16 58.32 58.52 58.26 56.96 57.88 56.90 56.36 56.31 56.65 56.53 56.31 55.20 53.46
63.18 63.88 63.04 61.53 59.65 59.61 59.69 58.93 58.85 58.52 58.60 58.94 59.31 58.71 58.54 58.21 57.68 56.95 57.23 56.71 57.81 56.59 58.70 59.10 59.21 57.64 57.82 58.98 56.21 55.82 51.58 54.26 57.00 57.28 56.91 56.98 56.89 56.50 55.66 56.20 56.41 55.74 54.27
60.74 60.55 59.77 59.21 58.48 58.26 58.51 58.04 57.74 57.99 57.70 56.62 56.59 56.70 57.35 57.59 56.03 55.83 55.64 56.11 57.02 56.90 55.80 57.49 56.91 56.20 53.82 56.12 57.71 54.07 49.20 48.25 53.05 56.25 57.04 56.09 56.31 56.51 56.05 55.88 55.68 53.73 52.86
58.63 59.09 58.59 57.84 57.21 56.80 57.18 56.60 55.91 54.58 53.53 54.93 55.62 55.91 55.17 55.70 54.59 54.06 54.24 54.49 55.07 55.32 55.36 55.15 53.62 54.91 53.75 51.45 54.00 53.27 54.38 52.13 48.85 48.06 54.12 54.09 55.28 53.21 56.18 55.73 54.91 52.13 51.45
58.13 58.16 58.24 57.65 56.77 56.73 56.08 55.73 54.97 54.86 55.32 55.87 55.45 54.67 54.41 54.61 53.76 53.13 53.26 53.24 53.47 52.94 53.65 53.64 53.37 51.40 50.82 50.53 49.29 49.75 49.87 49.84 49.93 46.01 44.04 49.43 52.66 52.94 51.56 52.49 53.07 51.30 51.37
57.81 57.88 57.60 56.53 55.36 55.72 55.31 55.88 55.76 53.45 52.95 51.98 52.32 51.32 51.49 51.72 51.55 52.22 51.44 51.96 52.66 52.47 51.05 50.86 50.90 50.16 48.17 47.84 46.86 45.75 44.12 42.41 41.75 41.68 41.21 44.56 46.48 48.70 49.74 50.50 49.40 50.13 50.92

GFSSE_sfc_wetblb_006.txt.gz
Wetbulb
69.72 70.62 72.40 73.36 73.09 72.86 72.36 72.59 72.47 72.42 72.62 72.52 72.54 71.81 71.25 71.08 70.78 70.40 70.01 70.02 70.07 69.66 69.86 70.00 70.96 70.80 70.98 71.43 71.67 70.70 70.68 71.16 70.56 70.30 71.09 71.76 70.39 71.06 70.90 72.11 71.42 69.39 70.78
70.81 70.88 72.08 72.83 72.82 72.84 72.72 72.65 72.85 72.79 72.59 72.39 72.05 71.67 71.45 71.13 70.47 69.40 69.11 69.31 69.48 69.77 70.07 70.02 70.46 70.82 71.27 71.71 70.37 70.12 70.43 70.38 70.70 70.70 70.95 71.26 71.14 70.37 70.26 71.32 71.19 68.98 69.83
70.25 70.91 71.60 72.29 72.82 72.66 72.74 73.06 72.88 72.98 72.71 72.05 71.83 71.40 71.36 70.47 69.88 69.12 68.76 68.89 69.07 69.29 69.77 69.98 70.17 70.02 69.55 69.27 68.72 68.99 69.18 69.52 69.57 69.89 70.71 66.99 65.97 66.61 68.75 70.80 71.47 71.13 70.44
70.97 71.47 71.55 72.02 72.52 72.60 72.74 72.39 72.53 72.39 71.70 71.97 71.72 71.14 70.79 70.00 69.24 68.54 68.17 68.50 68.43 68.44 68.58 68.48 68.31 69.32 68.96 68.41 68.16 68.31 68.28 68.45 68.55 68.91 67.10 65.81 67.64 68.00 69.51 70.97 71.40 71.47 70.59
71.27 71.37 71.99 71.69 71.97 72.48 72.65 72.57 72.07 71.88 71.83 71.76 71.47 71.11 69.89 69.06 68.31 67.74 67.65 68.08 67.38 67.54 67.83 67.73 67.38 66.86 66.70 67.35 67.58 67.78 68.04 68.07 67.92 66.97 65.11 65.01 64.92 67.65 67.64 69.85 70.11 71.15 70.31
70.08 70.70 70.15 70.44 71.19 72.09 72.29 72.20 71.91 71.48 70.96 71.03 70.75 70.11 69.40 68.53 67.78 67.21 66.82 66.22 65.82 65.66 65.89 66.20 66.41 66.44 66.85 67.04 67.22 66.96 66.64 66.91 67.13 64.51 63.28 66.06 63.33 64.40 66.86 68.99 69.40 69.81 69.45
68.63 69.99 70.14 69.51 70.53 71.11 71.03 70.75 70.62 70.38 70.12 69.84 69.52 68.80 68.43 67.81 66.78 66.16 65.70 65.23 64.79 64.56 64.17 63.86 63.70 64.15 64.44 65.13 65.11 65.69 66.00 65.89 64.52 63.08 64.69 65.16 63.09 65.07 67.12 67.08 67.61 68.14 68.27
66.88 68.23 68.32 69.99 69.86 69.67 69.87 69.74 69.43 69.11 69.11 69.15 68.79 67.63 67.53 66.69 66.08 65.56 65.15 64.71 64.10 63.94 63.49 63.06 62.58 62.59 62.99 63.52 63.80 64.43 64.32 64.58 63.65 62.75 64.43 65.53 64.12 62.18 66.60 66.81 66.90 66.76 66.99
65.71 65.31 66.33 67.06 67.68 68.30 68.18 68.50 68.46 68.42 68.29 67.83 67.43 67.40 66.86 66.39 65.80 65.26 64.63 63.95 63.38 62.84 62.49 61.95 61.60 61.34 61.29 62.07 62.77 63.04 63.15 63.51 62.48 62.78 63.54 63.15 66.41 66.74 66.41 66.60 66.75 66.42 65.61
65.71 66.27 66.60 66.63 66.73 66.37 66.54 67.47 67.76 67.65 67.49 67.03 66.75 66.55 66.41 66.20 65.59 64.99 64.69 63.64 62.62 61.66 61.31 60.78 60.27 60.08 60.28 60.63 61.80 62.56 61.77 62.02 60.15 61.56 61.74 62.06 65.36 65.87 65.99 66.16 66.11 67.58 66.53
64.74 66.45 66.74 66.59 66.95 67.63 66.06 66.34 67.14 67.52 67.32 66.83 66.65 65.99 65.02 65.80 65.05 64.08 63.80 63.99 62.90 62.36 61.86 60.93 60.35 60.10 60.63 61.05 61.99 62.06 61.95 58.65 60.19 59.48 62.01 63.58 63.79 64.34 65.20 65.24 65.38 65.53 66.52
63.91 65.33 67.86 67.08 66.76 65.89 65.16 65.54 66.85 66.45 66.51 66.69 66.56 66.34 66.37 65.73 65.38 64.73 64.63 63.96 63.91 63.65 63.10 62.51 61.99 61.95 61.61 59.47 58.43 61.15 59.04 59.00 57.88 57.64 60.09 62.07 61.47 61.93 63.79 64.81 64.84 65.13 65.45
64.61 65.40 67.82 68.28 67.63 66.80 65.36 65.58 65.41 65.39 65.28 66.75 67.12 65.87 65.82 65.10 65.48 64.68 64.48 63.54 63.09 63.17 63.06 61.58 61.11 60.04 60.40 58.59 56.67 56.75 56.97 56.71 56.42 56.86 58.12 59.52 58.80 59.26 61.57 62.44 63.01 63.69 64.32
63.73 63.97 67.95 67.70 67.34 66.48 66.50 65.03 65.50 64.99 64.46 64.60 64.80 65.58 64.56 63.76 63.68 62.44 61.80 60.45 59.71 59.54 59.36 59.93 59.04 59.94 59.37 57.90 55.52 54.99 55.29 55.24 53.50 53.60 55.11 58.04 57.74 57.08 59.42 60.69 61.29 61.40 62.28
62.84 64.40 66.64 67.07 66.75 67.34 65.69 66.79 66.34 65.21 65.02 64.49 64.72 64.56 63.72 62.59 62.26 61.94 60.56 59.80 59.38 59.07 58.34 58.08 57.58 57.77 57.54 56.37 55.24 54.00 54.42 54.40 54.25 53.88 53.63 56.54 56.90 56.55 57.31 59.12 60.29 61.15 61.42
63.37 65.09 67.25 67.07 66.46 65.69 65.58 65.63 65.85 64.88 64.61 64.79 62.92 61.81 62.70 62.07 61.53 60.95 59.64 59.54 58.78 58.78 58.20 57.33 56.99 57.50 57.24 56.33 54.96 54.52 53.89 54.09 53.51 53.91 53.43 52.42 56.31 57.02 57.89 58.91 59.75 60.48 60.95
63.23 64.89 65.45 65.88 64.08 64.46 64.86 64.97 64.59 61.64 61.06 61.53 61.66 61.79 61.40 61.36 60.57 60.61 59.69 59.40 59.37 59.63 58.80 58.36 58.30 57.35 56.94 57.31 55.38 55.06 54.25 54.25 53.90 53.58 53.81 53.25 51.90 56.27 58.11 59.29 59.42 60.22 60.12
64.22 61.97 64.25 66.48 64.72 63.74 64.47 62.55 62.36 62.41 61.99 61.45 61.93 61.42 61.26 61.32 60.89 59.96 59.39 59.15 59.74 59.96 58.52 57.94 57.00 56.11 55.61 55.44 54.87 54.85 53.43 53.44 53.40 53.53 53.26 52.85 52.08 52.15 55.47 58.40 59.59 59.40 58.47
62.80 63.90 65.10 64.40 63.35 62.76 62.78 62.35 62.12 61.92 60.98 60.34 59.49 60.12 60.05 59.74 60.69 59.23 58.45 58.99 59.60 58.39 57.69 57.89 56.76 56.06 55.16 54.98 55.34 54.54 54.10 53.11 52.56 54.55 52.74 52.49 52.31 52.77 51.69 55.46 57.61 57.56 58.31
63.82 63.84 65.28 62.12 59.87 61.76 62.43 61.82 60.46 59.72 59.69 59.94 59.46 58.64 59.45 58.84 58.77 58.08 57.20 57.64 59.00 57.03 56.01 56.21 56.30 55.22 55.04 54.82 56.30 55.77 54.81 55.12 54.67 52.27 52.71 53.84 52.78 52.88 52.45 52.12 53.61 53.94 56.28
63.45 62.88 61.51 62.31 61.76 61.18 60.45 58.26 57.04 56.21 57.29 57.93 58.08 58.54 57.67 57.95 56.73 55.59 54.95 55.41 54.92 53.83 53.94 53.94 53.16 52.19 52.51 53.40 52.75 52.46 52.68 53.52 54.25 54.63 54.45 53.32 52.99 52.75 52.45 52.34 52.16 51.10 51.67
61.69 61.65 60.79 60.63 59.45 58.09 57.53 57.57 57.25 57.01 56.82 56.96 57.54 56.65 57.20 56.19 55.52 54.28 54.10 53.52 53.17 52.18 51.75 52.23 52.29 50.62 50.39 50.96 49.55 49.10 45.68 48.03 50.73 52.11 53.37 54.20 53.64 53.59 52.77 52.50 52.25 51.40 51.40
58.86 58.65 57.62 57.05 56.40 56.46 57.47 56.14 55.65 55.57 54.69 54.02 54.29 54.55 54.95 54.95 54.58 54.07 53.10 53.36 52.73 50.94 49.52 49.63 49.73 48.60 47.44 48.16 48.35 46.24 42.95 41.95 45.72 48.84 50.02 51.44 51.64 53.28 53.69 53.96 53.10 53.10 51.78
57.06 57.69 57.02 56.97 56.21 56.26 56.38 55.18 53.98 52.65 52.29 54.19 54.81 54.06 54.21 53.85 53.22 52.13 51.56 51.55 51.08 50.11 48.89 49.10 49.68 48.37 47.16 44.93 46.30 48.07 45.18 43.08 40.70 40.64 45.74 47.60 49.47 50.63 52.47 52.69 52.87 52.52 51.66
57.21 57.56 57.47 56.83 56.13 56.15 55.40 54.61 53.56 53.92 53.53 53.52 53.00 52.45 51.78 51.72 50.92 50.91 50.01 48.84 49.22 48.34 48.25 48.51 47.12 46.80 46.30 44.38 43.30 41.99 40.96 41.02 41.41 38.12 37.47 39.16 42.73 44.95 48.26 50.13 50.52 50.46 50.31
57.11 56.98 56.68 55.82 55.36 55.85 55.42 55.62 53.48 51.97 51.43 50.65 50.57 49.50 48.32 48.18 48.23 48.82 49.27 48.42 48.56 47.93 47.09 47.08 45.95 44.73 42.78 42.91 42.82 41.74 39.69 39.52 38.37 37.38 36.36 36.44 37.08 40.36 42.98 44.93 48.47 48.11 48.51

GFSSE_sfc_wetblb_012.txt.gz
Wetbulb
69.54 70.26 71.46 72.07 72.17 72.02 71.69 71.69 71.83 71.63 71.68 71.65 71.19 70.84 70.14 69.90 69.75 69.82 69.85 70.34 70.48 70.09 70.26 70.28 70.09 69.96 70.13 69.71 69.31 68.93 68.74 68.93 69.39 69.40 69.89 68.81 68.81 68.66 70.19 70.72 69.69 68.83 70.82
69.85 70.33 70.84 71.68 72.22 72.49 72.09 71.75 71.77 71.74 72.03 71.27 71.18 70.56 70.17 69.62 69.12 68.74 68.81 68.84 68.91 69.10 69.07 69.33 69.38 69.30 69.05 68.47 68.17 68.02 67.85 68.13 68.40 68.34 68.40 68.20 67.74 68.93 69.17 70.18 69.57 69.11 70.06
69.52 70.36 70.77 71.46 72.25 72.45 72.58 72.30 72.11 72.28 71.80 71.24 70.81 70.34 69.64 69.02 68.32 68.36 68.38 68.32 68.04 68.13 68.15 68.06 68.04 67.60 67.47 67.13 66.98 67.24 67.35 67.32 67.72 67.76 67.02 63.96 66.36 68.01 66.65 68.13 69.49 69.91 70.50
69.71 69.80 70.26 71.28 71.76 72.07 72.02 71.87 71.75 71.85 71.38 71.08 70.54 69.78 69.04 68.10 68.02 67.85 67.53 67.34 66.97 66.85 67.06 67.16 67.24 67.17 67.09 66.88 66.82 66.83 66.39 66.17 66.53 66.85 62.99 64.32 65.73 66.48 64.79 65.84 67.38 69.57 69.67
69.25 69.86 70.52 70.48 70.88 71.60 71.54 71.59 71.56 71.57 71.42 70.64 69.81 69.13 68.24 67.93 67.51 66.83 66.13 65.83 65.51 65.26 65.34 65.27 65.07 64.68 64.76 64.87 65.00 64.97 65.17 65.18 66.04 62.98 61.61 63.00 61.66 65.24 66.39 66.58 67.19 68.79 69.08
68.97 69.22 69.56 69.64 70.56 71.40 71.44 71.28 71.03 70.85 70.36 69.55 69.44 68.38 67.83 67.30 66.57 65.84 65.16 64.73 64.48 64.24 63.99 63.71 63.31 63.11 63.27 63.78 63.96 63.66 63.70 64.02 63.72 59.40 61.69 63.77 63.01 65.86 66.61 66.59 65.97 68.37 68.51
68.67 69.89 69.87 68.99 70.21 70.87 70.99 70.66 70.39 69.97 69.56 69.39 69.14 68.42 67.05 66.57 65.94 65.03 64.43 63.86 63.44 62.93 62.74 62.53 62.18 62.08 62.19 62.71 62.64 63.24 63.29 63.23 60.59 58.69 59.94 62.33 62.27 64.64 64.82 66.43 66.57 67.51 67.66
68.05 68.72 69.15 69.80 69.51 69.66 69.74 69.16 68.83 68.62 68.64 68.70 68.64 68.00 66.74 66.25 65.70 65.02 64.38 63.73 62.80 61.87 61.78 61.50 61.38 61.51 61.61 61.83 62.32 62.64 62.42 62.68 60.05 58.12 62.34 61.75 62.99 65.26 64.16 63.86 67.06 67.25 66.29
66.45 66.79 66.13 67.26 68.02 67.55 66.99 66.97 67.15 67.84 67.70 67.65 67.76 67.23 66.65 66.01 65.94 65.46 64.77 63.80 62.76 61.64 61.03 60.91 61.58 61.52 61.55 61.78 61.78 61.68 61.44 62.31 56.07 57.24 62.17 62.01 64.88 66.12 66.63 66.94 67.06 67.51 66.97
64.04 64.33 63.42 64.11 64.68 64.45 65.04 66.17 66.26 66.29 66.11 66.47 66.56 65.95 65.20 65.14 65.43 65.54 64.98 64.60 63.84 62.45 62.17 62.21 62.23 62.07 61.63 61.67 61.95 62.13 61.46 60.62 56.08 56.16 59.40 60.29 66.37 66.27 65.50 66.17 66.59 67.32 67.55
61.87 61.93 61.80 62.31 62.53 63.02 63.48 65.10 66.18 66.19 65.59 65.37 65.42 65.13 63.93 62.84 62.26 62.99 63.56 63.25 64.21 63.39 63.08 63.31 63.00 62.35 61.53 61.37 61.63 61.41 61.46 56.78 55.28 54.90 58.52 61.83 64.56 64.88 64.76 64.62 64.76 65.49 65.93
59.40 60.50 61.01 61.24 61.56 61.92 64.27 63.90 63.06 64.28 63.73 63.37 63.46 63.02 62.65 62.06 61.66 62.19 62.77 63.57 63.81 63.21 63.41 63.51 63.56 63.32 61.92 58.06 57.34 57.28 54.08 54.29 52.20 52.70 54.87 61.46 63.20 63.17 62.70 62.91 64.25 64.63 65.10
60.62 61.61 61.36 62.30 61.56 60.55 61.24 61.30 61.27 61.98 62.08 62.46 62.95 62.60 61.81 61.68 60.93 61.80 59.97 60.50 59.59 61.12 59.86 60.26 60.02 58.77 58.35 57.42 56.26 52.81 51.76 51.30 50.52 50.81 53.94 60.89 61.62 61.81 61.69 61.77 62.23 62.98 63.78
60.67 61.14 60.93 62.14 61.31 59.06 60.51 61.06 61.03 60.81 61.64 61.69 61.86 60.75 58.66 57.95 56.28 56.67 57.22 56.78 56.51 55.75 57.76 57.37 56.69 55.52 55.25 56.16 56.13 53.48 51.54 50.39 50.69 50.89 51.28 59.39 60.68 60.70 60.85 60.57 60.80 61.43 62.65
61.33 61.09 60.31 59.91 59.53 59.37 59.22 60.42 59.71 59.45 59.97 60.31 59.93 59.24 58.00 57.43 55.36 55.32 54.89 54.63 54.09 53.81 53.35 53.07 52.70 52.92 53.18 53.84 53.95 52.96 51.76 50.70 50.86 51.10 49.94 56.80 59.41 60.19 60.70 60.80 60.80 60.65 60.89
62.50 61.20 61.96 61.84 61.64 60.81 60.69 60.01 59.43 58.66 57.62 59.15 57.62 57.66 58.10 57.48 55.44 55.44 54.51 54.80 54.60 54.47 54.86 53.74 53.21 52.98 53.47 53.88 53.92 54.00 53.00 50.95 50.03 50.41 50.53 50.35 57.64 59.39 60.26 60.20 60.56 60.78 60.75
62.29 62.07 61.64 61.50 61.80 60.49 60.82 60.40 58.68 55.99 57.52 56.38 55.67 56.23 56.55 56.07 54.82 54.70 53.90 52.87 53.48 54.12 53.73 53.72 53.35 53.38 52.93 53.39 52.45 52.97 52.99 52.97 51.44 50.41 50.27 50.27 50.82 57.20 58.17 60.02 60.91 61.17 60.66
61.64 60.89 61.06 62.03 61.61 59.63 59.15 58.33 57.19 55.32 55.20 54.77 55.18 55.43 55.84 55.79 54.39 52.54 51.05 50.62 51.75 52.30 52.20 51.59 51.78 51.21 50.52 50.20 50.15 50.47 50.71 51.37 51.52 50.95 50.49 49.79 50.37 51.26 54.17 57.88 59.15 60.28 60.94
61.17 59.71 59.72 60.78 59.81 58.92 57.58 56.81 55.62 54.42 54.09 52.96 52.95 53.15 53.47 53.25 52.76 50.66 50.13 50.06 50.89 50.32 49.54 49.69 48.65 48.86 47.98 47.29 48.36 47.94 48.46 49.49 49.97 52.27 50.75 50.48 49.78 50.06 50.09 52.86 56.94 57.86 59.19
58.05 58.38 58.59 59.50 60.05 57.80 55.29 54.44 53.55 52.42 51.56 51.56 51.35 51.60 52.11 52.69 53.03 50.38 49.72 49.64 49.72 48.48 47.42 46.88 46.06 46.06 46.24 46.15 48.08 47.80 46.36 47.60 47.88 47.27 47.82 49.84 49.84 50.59 50.12 49.57 49.07 51.85 55.97
57.48 56.79 55.71 55.98 54.51 56.57 52.57 51.99 50.73 49.26 50.07 50.46 52.51 53.67 52.95 52.49 51.59 49.20 48.44 48.45 48.45 46.77 45.59 45.49 45.17 44.85 44.88 45.13 43.38 44.26 43.91 45.06 44.56 44.30 45.35 46.23 46.31 48.73 47.43 47.29 48.45 50.58 50.46
52.65 54.18 53.70 51.60 51.44 51.26 52.05 51.36 51.60 49.91 51.61 52.06 52.53 52.62 50.83 49.34 49.02 48.98 46.90 45.87 46.61 45.39 44.26 43.74 44.13 43.94 44.25 44.24 42.01 41.39 38.72 41.37 41.73 43.02 41.71 43.45 41.27 44.04 43.95 45.63 48.16 48.64 50.88
50.79 50.29 49.98 49.99 50.34 50.49 51.76 51.16 50.71 51.10 50.63 50.46 49.93 48.54 48.06 48.19 47.23 46.27 45.50 45.13 44.76 44.49 43.55 43.04 43.87 42.90 41.68 42.80 42.28 41.09 37.29 35.29 37.48 40.53 40.32 39.34 39.51 39.60 40.85 43.22 45.12 46.13 49.64
47.82 48.16 49.25 50.18 50.01 50.61 50.34 49.34 49.42 48.63 47.97 48.30 47.39 45.44 44.61 45.55 45.76 45.78 45.15 44.15 43.98 44.15 42.87 43.15 44.78 42.66 41.84 40.23 41.23 42.87 40.10 39.59 37.02 34.84 37.00 38.07 38.26 39.37 38.95 41.01 40.97 42.84 47.87
48.27 48.18 48.33 49.44 49.79 50.13 49.80 49.72 49.03 47.11 45.92 46.33 44.32 43.39 43.52 44.70 45.94 46.11 45.71 44.40 43.15 42.79 41.97 41.36 41.83 40.49 40.46 39.71 39.24 39.11 38.03 37.70 37.86 35.30 32.48 33.18 36.17 37.36 38.25 38.71 39.15 41.52 45.56
48.04 48.02 47.59 49.26 49.40 49.95 49.09 48.57 46.66 44.99 44.23 42.97 42.31 43.37 44.55 44.79 43.47 44.03 43.87 42.10 41.38 41.06 40.60 40.02 39.58 39.57 39.92 40.60 40.30 39.34 37.92 36.41 35.10 34.01 33.68 34.17 33.69 34.85 35.99 37.70 38.30 40.05 42.50